Location: Bacharowice
(49.9333°N, 19.5833°E)
Time: 01:43:33
(UTC+00:00)

Terra - Pass Details

Date: 11 May 2021
Orbit: 701 x 703 km, 98.2° (Epoch: 22 June)

Event Time Altitude Azimuth Distance (km) Brightness Sun altitude
Exits shadow 19:53:54 19° 134° (SE) 1,649 3.1 -12.9°
Maximum altitude 19:57:02 46° 68° (ENE) 942 2.3 -13.2°
Drops below altitude 10° 20:01:36 10° 356° (N) 2,184 5.2 -13.7°
Sets 20:03:56 0° 351° (N) 3,107 6.3 -13.9°
